Regional Weather Roundup
Issued by NWS Sterling, VA

Home | Current Version | Previous Version | Text Only | Print | Product List | Glossary Off
Versions: 1 2 3 4 5 6 7 8 9 10 11 12 13 14 15 16 17 18 19 20 21 22 23 24 25 26 27 28 29 30 31 32 33 34 35 36 37 38 39 40 41 42 43 44 45 46 47 48 49 50

000
ASUS41 KLWX 011410
RWRLWX

REGIONAL WEATHER ROUNDUP
NATIONAL WEATHER SERVICE BALTIMORE MD/WASHINGTON DC
1000 AM EDT WED OCT 01 2014

Note: "FAIR" indicates few or no clouds below 12,000 feet
with no significant weather and/or obstructions to visibility.
 TC=TEMPERATURE CELSIUS

 * =Non NWS site. Station does not report precipitation (e.g. rain,
    snow, etc.), thunder, or fog.

DCZ001-MDZ009-015-VAZ040>042-051-053>054-011500-
WASHINGTON METRO

CITY           SKY/WX    TMP DP  RH WIND       PRES   REMARKS
WASHINGTON NAT CLOUDY    68  61  78 E8        30.04R
DULLES         CLOUDY    63  61  93 VRB3      30.05R
ANDREWS AFB    CLOUDY    64  63  94 NE6       30.03R
QUANTICO       CLOUDY    65  62  90 N7        30.04R
COLLEGE PARK*  CLOUDY    64  63  94 E5        30.03R
LEESBURG*      CLOUDY    64  64 100 CALM      30.06R
GAITHERSBURG*  CLOUDY    63  61  94 CALM      30.08R

$$

MDZ006>007-011-014-011500-
BALTIMORE METRO

CITY           SKY/WX    TMP DP  RH WIND       PRES   REMARKS
BWI AIRPORT    PTSUNNY   65  61  87 NE7       30.03R
MD SCIENCE CTR   N/A     67  60  78 MISG      30.05R
MARTIN STATE   PTSUNNY   68  64  88 NE3       30.05S
ANNAPOLIS        N/A     67  60  78 MISG      30.03S
FORT MEADE*    CLOUDY    63  61  94 E5        30.05F

$$

MDZ012-015-019>023-011500-
MARYLAND EASTERN SHORE

CITY           SKY/WX    TMP DP  RH WIND       PRES   REMARKS
OCEAN CITY     CLOUDY   N/A N/A N/A NE12      29.99R
SALISBURY      CLOUDY    69  63  81 N8        30.01R
BAY BRIDGE AP*   N/A     64  61  88 E9        30.03S
CAMBRIDGE*     CLOUDY    64  61  88 NE3       30.02R
EASTON*        CLOUDY    66  66 100 E8        30.07R

$$

MDZ017>025-011500-
SOUTHERN MARYLAND

CITY           SKY/WX    TMP DP  RH WIND       PRES   REMARKS
PATUXENT RIVER PTSUNNY   65  60  84 NE7       30.01S
ST INIGOES     CLOUDY    67  60  78 NE8       30.01R
LEONARDTOWN*   CLOUDY    64  59  82 NE3       30.03R

$$

MDZ003>005-011500-
NORTH CENTRAL MARYLAND

CITY           SKY/WX    TMP DP  RH WIND       PRES   REMARKS
FREDERICK*     CLOUDY    66  63  88 VRB3      30.07R FOG
HAGERSTOWN APT CLOUDY    64  59  83 NE6       30.05R HAZE
WESTMINSTER*   PTSUNNY   64  61  88 SE5       30.06R

$$

MDZ501>502-011500-
WESTERN MARYLAND

CITY           SKY/WX    TMP DP  RH WIND       PRES   REMARKS
OAKLAND*       FOG       54 N/A N/A SE8       30.07R VSB<1/4
CUMBERLAND*    CLOUDY    63  59  88 CALM      30.09R

$$

VAZ025>031-011500-
SHENANDOAH VALLEY

CITY           SKY/WX    TMP DP  RH WIND       PRES   REMARKS
WINCHESTER*    CLOUDY    63  61  94 E6        30.05R FOG
STAUNTON*      CLOUDY    63  58  85 CALM      30.06S

$$

WVZ021-048>050-054>055-011500-
EASTERN WEST VIRGINIA PANHANDLE

CITY           SKY/WX    TMP DP  RH WIND       PRES   REMARKS
MARTINSBURG    CLOUDY    63  58  83 CALM      30.06R HAZE
PETERSBURG*    CLOUDY   N/A N/A N/A CALM      30.06R

$$

VAZ036>039-050-011500-
CENTRAL FOOTHILLS

CITY           SKY/WX    TMP DP  RH WIND       PRES   REMARKS
CHARLOTTESVILL CLOUDY    65  62  90 CALM      30.03R FOG
ORANGE*        CLOUDY    63  63 100 CALM      30.05R FOG

$$

VAZ055>057-011500-
NORTH AND CENTRAL PIEDMONT

CITY           SKY/WX    TMP DP  RH WIND       PRES   REMARKS
FREDERICKSBRG* CLOUDY    67  67  97 NE6       30.02R
STAFFORD*      CLOUDY    66  66 100 NE7       30.07R

$$

NCZ024-NYZ072-PAZ021-071-VAZ022-071-011500-
OTHER REGIONAL OBSERVATIONS

CITY           SKY/WX    TMP DP  RH WIND       PRES   REMARKS
NEW YORK CITY  CLOUDY    61  57  87 VRB5      30.07R FOG
PHILADELPHIA   PTSUNNY   67  57  70 E8        30.04R
PITTSBURGH     FOG       55  55 100 CALM      30.03S VSB 1/2
ROANOKE        MOSUNNY   65  58  78 CALM      30.06R
RICHMOND       MOSUNNY   71  63  75 CALM      30.01S
RALEIGH        MOSUNNY   66  62  87 CALM      30.02R

$$

ANZ530>537-011500-
MARINE OBSERVATIONS

STATION/POSITION TIME  TEMP    WIND        PRES
                       AIR SEA DIR/SP/G
                 (UTC) (F)     (DEG/KT/KT) (MB)
THOMAS PT LIGHT  1400   64 72   60/  7/  7 1017.8R
BALT KEY BRIDGE  1400   65      60/  6/  8 1016.7S
COVE POINT       1400   63      60/  6/  9 1016.3R
LEWISETTA        1400   66 72   60/  8/ 10 1015.9S
SOLOMONS ISLAND  1400      72                N/A
PINEY POINT      1400          100/  4/  6   N/A

$$



USA.gov is the U.S. government's official web portal to all federal, state and local government web resources and services.